Tracking 30970 objects as of 3-Jul-2025
HD Live streaming from Space Station
objects crossing your sky now

DELTA 1 DEB

Track DELTA 1 DEB now!
10-day predictions


NORAD ID: 26841
Int'l Code: 1975-052KV
Perigee: 928.4 km
Apogee: 1,700.5 km
Inclination: 99.9 °
Period: 111.8 minutes
Semi major axis: 7685 km
RCS: 0.0089 m2 (small)
Launch date: June 12, 1975
Source: United States (US)
Launch site: AIR FORCE WESTERN TEST RANGE (AFWTR)

Note: This is SATELLITE DEBRIS
Your satellite tracking list
SJ-6H
Track 1 satellite(s)




NASA's NSSDC Master Catalog

Two Line Element Set (TLE):
1 26841U 75052KV  25182.49124264  .00001230  00000-0  28459-2 0  9996
2 26841  99.8793 186.5408 0502306 233.6564 285.3422 12.88540781525917
Source of the keplerian elements: AFSPC